Terug naar catalogus

STARLINK-36745

ActiefCommunicatieVLEO
NORAD 68257·PAYLOAD·🇺🇸 United States

Gelanceerd Mar 17, 2026 vanaf Vandenberg Space Force Base

Loading…

Volgende Passages (komende 24 uur)

TLE

VersSource: CelesTrak SupGP

Epoch: Sep 15, 2026, 02:52 UTC

1 68257C 26054AB  26258.11993056  .00040021  00000+0  11825-2 0  2585
2 68257  53.1564 127.0943 0001163  78.9234 254.2477 15.34368979    11

Volg STARLINK-36745 in realtime met AllMySat

Download on the App Store